[[{"header":{"parameterUnit":"m.s-1","parameterCategory":1,"la1":30.2992,"la2":30.254,"lo1":-89.0895,"lo2":-89.0443,"dy":0.0025,"dx":0.0025,"nx":19,"ny":19,"refTime":"2026-04-08T09:00:00:Z","depth":0,"parameterNumber":2,"parameterNumberName":"U-component_of_WINDS"},"data":[0,0,0,-6.3271,-6.3273,-6.3356,-6.3356,-6.3498,-6.3499,0,0,0,0,0,0,0,0,0,0,0,-6.3269,-6.3271,-6.3271,-6.3273,-6.3356,-6.3356,-6.3497,-6.3499,0,0,0,0,0,0,0,0,0,0,0,-6.3268,-6.327,-6.3273,-6.3274,-6.3356,-6.3356,-6.3497,-6.3421,0,0,0,0,0,0,0,0,0,0,-6.3335,-6.3356,-6.327,-6.3273,-6.3274,-6.3356,-6.3356,-6.3417,-6.3426,-6.3476,0,-6.3527,0,-6.3516,-6.3511,-6.3512,0,0,0,-6.3256,-6.3349,-6.335,-6.3273,-6.3275,-6.3356,-6.3314,-6.3422,-6.3432,-6.3488,-6.3528,-6.3533,-6.3518,-6.3512,-6.3513,-6.3861,-6.3863,0,0,-6.3252,-6.3296,-6.3344,-6.3358,-6.3349,-6.3311,-6.3317,-6.3427,-6.3474,-6.3529,-6.3535,-6.352,-6.3513,-6.3515,-6.3858,-6.3861,0,0,0,-6.325,-6.3294,-6.3292,-6.3353,-6.3366,-6.3314,-6.332,-6.3469,-6.3465,-6.3537,-6.3522,-6.3514,-6.3517,-6.3856,-6.3859,-6.4026,0,0,0,-6.3246,-6.3292,-6.3291,-6.3319,-6.3364,-6.3419,-6.336,-6.3457,-6.3468,-6.3521,-6.3514,-6.3518,-6.3853,-6.3858,-6.4015,-6.4098,0,0,0,-6.3256,-6.3293,-6.3313,-6.3321,-6.3358,-6.3416,-6.3417,-6.3459,-6.3461,-6.3512,-6.3519,-6.3851,-6.3857,-6.4006,-6.4082,-6.4205,0,0,0,-6.3278,-6.3458,-6.3317,-6.3511,-6.3358,-6.3518,-6.3416,-6.3532,-6.3596,-6.3515,-6.3853,-6.3859,-6.4003,-6.4072,-6.4195,-6.4318,-6.4373,0,0,-6.3529,-6.3489,-6.36,-6.3476,-6.3674,-6.3501,-6.3722,-6.3737,-6.37,-6.3809,-6.3817,-6.4019,-6.4081,-6.4203,-6.4658,-6.4702,0,0,0,-6.3695,-6.3776,-6.3818,-6.3882,-6.3898,-6.392,-6.3897,-6.3902,-6.3993,-6.3765,-6.4093,-6.4128,-6.4198,-6.4255,-6.4292,-6.435,-6.3886,-6.3886,-6.3885,-6.4116,-6.406,-6.424,-6.4196,-6.4258,-6.4233,-6.4279,-6.4282,-6.4206,-6.4284,-6.4318,-6.4601,-6.467,-6.4697,-6.4759,-6.4375,-6.4376,-6.4376,-6.4377,-6.4481,-6.4588,-6.4483,-6.4622,-6.4562,-6.4676,-6.4659,-6.4602,-6.47,-6.4571,-6.4629,-6.4497,-6.4747,-6.4798,-6.4389,-6.4387,-6.4385,-6.4384,-6.4383,-6.4753,-6.4795,-6.4799,-6.4887,-6.496,-6.4906,-6.5007,-6.4947,-6.4891,-6.4949,-6.4979,-6.4976,-6.4969,-6.4967,-6.4968,-6.4969,-6.497,-6.497,-6.4971,-6.5036,-6.5035,-6.5128,-6.5162,-6.5195,-6.5232,-6.5209,-6.524,-6.526,-6.5208,-6.5208,-6.5127,-6.4781,-6.4697,-6.4986,-6.4983,-6.4981,-6.498,-6.4979,-6.5433,-6.5334,-6.5477,-6.5512,-6.5547,-6.5625,-6.5547,-6.5616,-6.5633,-6.5685,-6.559,-6.5343,-6.5298,-6.5268,-6.5198,-6.5599,-6.5599,-6.5599,-6.56,-6.5666,-6.5636,-6.5771,-6.583,-6.588,-6.5825,-6.599,-6.5973,-6.594,-6.5947,-6.588,-6.5781,-6.5753,-6.5725,-6.5685,-6.5619,-6.6118,-6.6119,-6.6119,-6.5909,-6.5881,-6.6034,-6.6002,-6.6025,-6.6046,-6.62,-6.6272,-6.6213,-6.6139,-6.5953,-6.5931,-6.5771,-6.5721,-6.5647,-6.5586,-6.5465,0,0]},{"header":{"parameterUnit":"m.s-1","parameterCategory":1,"la1":30.2992,"la2":30.254,"lo1":-89.0895,"lo2":-89.0443,"dy":0.0025,"dx":0.0025,"nx":19,"ny":19,"refTime":"2026-04-08T09:00:00:Z","depth":0,"parameterNumber":3,"parameterNumberName":"V-component_of_WINDS"},"data":[0,0,0,-0.8153,-0.8155,-0.8227,-0.8227,-0.833,-0.8331,0,0,0,0,0,0,0,0,0,0,0,-0.8136,-0.8137,-0.8153,-0.8155,-0.8227,-0.8227,-0.833,-0.8331,0,0,0,0,0,0,0,0,0,0,0,-0.8136,-0.8137,-0.8138,-0.8155,-0.8227,-0.8227,-0.833,-0.8272,0,0,0,0,0,0,0,0,0,0,-0.82,-0.8189,-0.8136,-0.8138,-0.8155,-0.8227,-0.8227,-0.8269,-0.8276,-0.8301,0,-0.8324,0,-0.8329,-0.8339,-0.8339,0,0,0,-0.8152,-0.8183,-0.8198,-0.8138,-0.8156,-0.8227,-0.8194,-0.8273,-0.828,-0.831,-0.8325,-0.8329,-0.8331,-0.8339,-0.834,-0.8491,-0.8492,0,0,-0.8148,-0.8152,-0.8193,-0.8203,-0.819,-0.8191,-0.8196,-0.8277,-0.8295,-0.8325,-0.8331,-0.8332,-0.834,-0.8341,-0.849,-0.8491,0,0,0,-0.8138,-0.815,-0.8162,-0.8199,-0.8211,-0.8194,-0.8199,-0.8291,-0.8295,-0.8332,-0.8333,-0.8341,-0.8342,-0.8489,-0.849,-0.8534,0,0,0,-0.8136,-0.8144,-0.8161,-0.8164,-0.821,-0.8252,-0.8211,-0.8289,-0.8298,-0.8333,-0.8341,-0.8343,-0.8488,-0.849,-0.8531,-0.8555,0,0,0,-0.813,-0.8143,-0.8155,-0.8164,-0.8195,-0.825,-0.8258,-0.8291,-0.8299,-0.8339,-0.8343,-0.8488,-0.8489,-0.8528,-0.8551,-0.8596,0,0,0,-0.8125,-0.8195,-0.8156,-0.8234,-0.8195,-0.8276,-0.8258,-0.8319,-0.8359,-0.8341,-0.8488,-0.849,-0.8527,-0.8548,-0.8592,-0.8634,-0.8652,0,0,-0.8216,-0.8206,-0.8252,-0.8218,-0.8308,-0.8265,-0.8361,-0.8395,-0.8396,-0.846,-0.8463,-0.8532,-0.855,-0.8595,-0.8748,-0.8762,0,0,0,-0.8282,-0.8315,-0.8337,-0.8373,-0.8399,-0.8423,-0.844,-0.8452,-0.8505,-0.8429,-0.856,-0.8571,-0.8597,-0.8617,-0.8629,-0.8651,-0.8499,-0.8499,-0.8499,-0.8417,-0.8412,-0.8487,-0.849,-0.8526,-0.8542,-0.857,-0.859,-0.8577,-0.8608,-0.8627,-0.872,-0.8744,-0.8752,-0.8775,-0.8648,-0.8648,-0.8649,-0.8649,-0.8549,-0.8595,-0.8572,-0.8637,-0.8632,-0.8687,-0.8704,-0.8693,-0.8744,-0.8706,-0.8729,-0.8688,-0.8768,-0.8788,-0.8652,-0.8651,-0.8651,-0.8651,-0.865,-0.8638,-0.8659,-0.867,-0.872,-0.876,-0.8761,-0.881,-0.8804,-0.8799,-0.8821,-0.8841,-0.884,-0.8839,-0.8831,-0.8831,-0.8831,-0.8832,-0.8832,-0.8832,-0.8726,-0.8737,-0.8778,-0.8808,-0.8829,-0.8857,-0.8872,-0.8893,-0.8916,-0.8908,-0.8908,-0.8892,-0.8776,-0.8747,-0.8837,-0.8836,-0.8836,-0.8835,-0.8835,-0.8863,-0.883,-0.8893,-0.8914,-0.8948,-0.8988,-0.8978,-0.9022,-0.9039,-0.9063,-0.9041,-0.8956,-0.8947,-0.8937,-0.8914,-0.9041,-0.9041,-0.9041,-0.9041,-0.8938,-0.8931,-0.8993,-0.9027,-0.9059,-0.9056,-0.9129,-0.914,-0.9148,-0.9158,-0.9139,-0.9106,-0.9097,-0.9093,-0.908,-0.9058,-0.922,-0.922,-0.922,-0.9021,-0.9017,-0.908,-0.9084,-0.9109,-0.9132,-0.92,-0.924,-0.9243,-0.9227,-0.9166,-0.9159,-0.9106,-0.9089,-0.9074,-0.9055,-0.9014,0,0]}]]